Wind_Speed
27 26 26 26 25 25 25 25 25 25 25 25 26 27 27 28 29 30 31 31 32 32 32 32 31 30 30 29 29 29 30 30 30 31 31 32 32 32 31 30 29 28 28
29 28 28 28 28 27 27 27 26 26 26 26 27 28 29 29 30 31 32 33 33 33 33 32 31 31 30 29 29 29 29 30 31 31 32 33 34 34 34 34 34 33 32
30 30 29 30 29 29 28 28 28 28 28 28 28 29 30 30 30 31 32 33 34 34 33 33 32 32 32 32 32 32 32 33 34 35 35 36 37 38 39 39 39 38 38
30 30 30 31 30 30 30 30 30 30 30 30 30 31 31 31 32 32 33 34 34 34 33 33 33 33 34 35 35 36 37 38 38 39 40 41 41 42 43 44 44 44 43
31 31 31 32 31 31 32 32 32 31 31 32 32 32 32 33 33 34 34 35 35 34 33 33 33 33 34 35 37 38 39 40 41 42 43 44 45 45 45 46 47 47 48
34 33 33 33 33 33 33 33 33 33 33 33 33 33 33 34 34 35 35 36 35 34 34 34 34 35 36 37 38 39 40 41 42 43 44 45 46 47 47 48 49 49 50
36 35 35 35 35 34 34 34 34 34 34 34 34 34 34 34 35 36 36 36 35 35 35 35 36 36 37 38 39 40 41 42 43 44 44 45 46 47 48 49 50 51 52
38 38 38 38 38 37 37 36 36 35 35 35 35 35 35 36 36 36 36 36 36 36 37 37 37 38 38 39 40 41 41 42 43 44 45 46 47 49 50 51 53 54 55
42 42 42 42 41 40 39 38 38 38 38 38 38 38 37 37 38 38 38 37 37 38 39 39 39 40 40 40 41 41 42 43 45 46 47 48 49 50 51 53 54 55 56
46 46 46 46 45 44 43 42 41 40 40 40 40 39 39 40 39 39 39 39 39 40 41 41 41 42 42 42 43 43 45 46 47 48 50 51 52 52 53 54 55 56 58
49 49 49 49 48 48 46 45 44 43 42 41 41 41 41 41 41 41 40 41 41 42 43 43 44 45 45 45 46 47 48 50 51 52 53 54 55 55 56 57 58 59 61
51 50 50 50 50 50 49 48 47 46 44 43 43 43 43 43 43 43 43 43 43 44 45 46 47 48 48 49 50 52 53 54 55 56 57 58 58 59 60 61 62 63 64
53 52 52 51 51 51 51 50 49 48 46 45 45 45 45 45 45 45 45 45 46 46 47 49 50 51 52 53 55 56 58 59 59 60 61 62 63 63 64 65 65 66 67
56 55 54 54 53 53 52 51 51 49 48 47 46 46 46 46 46 46 47 47 47 48 49 50 52 54 55 57 59 60 61 62 63 64 65 66 67 67 68 68 69 70 71
61 59 57 56 55 54 53 52 52 51 49 48 48 47 47 47 47 47 48 48 49 50 51 52 54 56 58 60 62 63 64 65 66 67 68 69 70 71 71 72 73 75 76
65 62 60 58 56 55 54 53 52 51 50 49 49 48 48 48 48 49 50 50 51 52 54 55 57 59 62 64 65 66 67 68 69 70 71 71 72 73 75 76 78 80 81
68 65 63 60 58 57 55 54 52 51 50 49 49 49 48 51 51 51 52 53 54 55 56 58 60 63 65 66 68 69 70 71 72 73 74 75 77 78 80 82 83 85 85
68 66 63 61 60 58 56 55 53 51 50 50 49 49 50 52 52 54 55 56 57 58 59 61 63 66 67 69 70 70 71 73 74 76 78 80 82 83 84 85 85 85 86
64 64 63 61 59 58 56 54 52 51 50 49 49 49 51 52 54 56 57 58 60 62 64 65 66 68 69 70 71 72 73 75 77 79 81 82 83 84 84 84 84 84 84
59 59 59 58 57 56 54 52 51 50 48 48 48 49 52 54 57 58 60 62 63 65 66 67 67 68 69 71 73 73 74 76 78 81 82 82 82 82 82 82 81 80 79
51 51 52 52 52 51 50 49 48 47 46 46 47 49 53 56 58 61 63 64 66 66 67 68 68 69 70 72 74 75 76 77 78 80 79 80 81 81 80 79 78 76 74
41 42 44 45 45 45 45 44 43 43 44 45 47 50 53 57 59 62 64 65 65 66 67 68 69 70 72 74 75 76 77 77 76 77 76 75 76 73 72 70 69 69 69
31 33 35 37 39 40 40 40 40 42 43 45 48 51 55 58 60 61 63 64 65 67 69 69 71 73 74 76 77 77 76 75 73 72 69 65 65 64 62 62 62 63 63
24 26 29 33 34 36 37 38 39 42 45 47 50 52 54 57 59 61 63 64 65 68 70 72 74 75 77 77 76 74 71 68 64 63 63 59 57 56 55 55 57 58 58
21 23 25 27 29 31 34 36 38 41 43 45 47 50 53 56 59 60 62 64 66 69 72 74 75 76 75 74 71 67 63 59 56 55 57 54 51 50 48 48 49 51 51
16 18 21 24 27 29 32 35 36 39 41 43 47 50 53 55 58 60 63 65 68 71 73 74 74 73 70 66 62 58 55 53 51 49 49 48 46 45 40 38 41 43 44
Wind_Direction
272 272 273 273 274 274 276 277 278 279 281 284 286 287 288 288 288 288 288 289 289 290 291 291 290 288 287 284 282 281 280 281 281 280 278 276 274 272 270 270 271 272 274
270 270 269 270 271 273 275 277 277 279 282 284 286 287 288 289 289 289 289 290 290 290 291 290 289 287 285 283 281 281 280 280 281 280 280 279 277 275 272 270 270 270 271
268 268 268 268 269 272 274 275 276 279 282 285 286 287 288 288 289 290 290 291 291 290 290 289 288 285 283 281 280 279 279 280 280 280 279 279 278 277 275 273 272 270 270
267 267 267 267 269 271 272 274 277 280 283 285 286 287 287 289 290 291 292 292 292 291 289 288 286 285 283 281 280 279 279 279 280 280 280 279 279 278 276 275 273 272 270
265 266 267 268 269 270 272 274 277 280 283 284 285 286 288 289 290 291 292 293 293 292 290 289 287 286 284 283 282 282 281 281 281 281 281 280 279 278 276 275 274 272 271
263 266 267 268 268 269 271 273 276 279 281 283 284 286 288 289 290 292 293 293 293 293 291 290 289 288 287 286 285 284 283 283 282 282 281 281 281 279 278 276 274 273 271
263 265 267 267 268 268 269 272 274 277 279 281 283 286 288 289 290 292 293 293 293 293 293 292 292 291 290 289 289 288 287 286 285 284 283 282 281 280 279 277 276 274 273
262 264 264 265 265 266 268 270 272 274 277 279 282 284 287 288 290 291 292 293 293 294 294 294 294 293 293 292 291 291 290 289 288 287 286 285 283 281 279 278 277 275 274
259 260 261 262 263 265 267 269 270 273 275 277 280 283 285 287 288 290 292 293 294 294 295 295 295 294 294 293 292 292 292 291 291 290 289 288 286 283 281 279 277 276 275
255 257 259 261 263 264 266 268 270 272 274 276 279 281 284 286 287 289 290 292 294 295 296 296 295 295 294 293 293 293 293 293 292 292 291 290 288 286 284 282 280 278 276
256 258 259 260 262 264 266 268 269 272 273 275 278 281 283 284 286 287 288 290 292 294 295 295 294 294 294 294 294 294 294 294 294 293 292 291 289 287 285 283 281 279 278
255 256 258 260 262 264 265 267 268 270 272 275 277 279 281 283 285 286 287 289 291 293 294 294 294 294 294 295 295 296 296 296 295 295 294 292 291 289 287 284 283 281 280
255 255 256 257 259 261 264 266 268 270 272 273 276 278 280 282 283 284 286 288 290 292 293 293 293 294 295 296 297 297 297 296 295 295 294 293 291 290 288 286 284 283 281
253 253 254 255 257 259 262 264 267 269 271 273 276 277 279 281 282 283 285 287 288 290 291 291 292 293 294 295 296 297 296 295 295 294 293 292 291 290 288 287 285 284 282
252 251 252 253 255 256 259 262 265 268 270 273 276 277 279 280 281 282 284 286 288 288 288 289 291 292 294 295 296 296 295 295 295 294 293 292 291 290 289 287 286 284 283
251 250 251 251 253 255 257 260 263 266 269 272 275 277 278 279 279 282 284 286 287 287 288 289 290 292 294 295 295 295 295 296 295 294 293 292 291 290 289 288 286 285 283
250 250 250 250 251 253 256 258 262 265 268 271 274 277 277 279 280 281 283 286 287 288 289 291 292 293 294 295 295 296 296 296 296 295 294 294 292 291 290 289 287 286 284
248 248 249 249 251 253 255 258 260 263 267 270 273 275 276 277 279 281 284 287 288 289 291 292 294 295 295 296 296 297 297 298 297 296 296 295 294 293 292 290 289 287 286
247 247 248 248 250 251 254 256 259 262 266 269 272 274 275 275 280 282 285 287 288 290 292 293 294 295 296 296 297 298 299 299 298 298 297 296 296 295 294 293 292 290 289
245 246 246 247 248 251 253 256 259 262 266 269 272 273 275 277 279 281 284 286 288 291 293 294 295 296 296 297 298 299 300 300 299 299 298 298 297 296 296 295 294 292 290
243 244 245 246 247 249 252 255 258 262 266 268 271 271 274 277 280 283 285 287 290 292 293 294 295 297 298 299 300 300 301 301 300 299 299 298 298 298 298 297 295 293 291
241 242 243 245 246 248 250 253 258 262 264 267 269 272 276 280 281 284 287 290 292 293 294 295 297 298 299 299 301 301 301 301 300 299 299 299 299 300 299 298 296 295 293
235 239 240 241 244 246 249 253 257 260 264 268 272 275 278 281 283 287 290 293 294 295 296 297 298 299 300 300 301 302 302 302 302 301 301 301 301 301 301 300 298 297 296
228 232 234 237 241 244 248 253 257 262 266 270 275 278 281 285 287 290 292 294 296 296 297 298 299 300 301 302 302 302 302 303 303 302 302 304 303 303 304 302 300 299 299
218 224 231 236 241 246 252 257 262 267 271 275 279 283 286 288 291 293 295 296 297 298 298 299 300 301 302 303 303 303 304 304 304 303 304 307 307 307 308 306 304 304 304
218 225 234 242 248 253 259 265 270 274 279 284 287 290 292 294 295 296 297 298 298 299 300 300 302 303 303 303 304 305 305 306 306 305 306 309 311 310 311 309 306 306 307
Height
5824 5824 5824 5824 5824 5824 5824 5824 5823 5823 5823 5822 5821 5821 5820 5819 5818 5817 5815 5814 5813 5812 5811 5809 5808 5807 5806 5805 5805 5804 5804 5803 5803 5803 5802 5802 5802 5802 5802 5802 5802 5802 5802
5817 5818 5818 5818 5818 5818 5818 5818 5817 5817 5817 5816 5816 5815 5814 5813 5812 5810 5809 5808 5806 5805 5804 5803 5801 5800 5799 5799 5798 5797 5797 5796 5795 5795 5795 5795 5794 5794 5794 5794 5794 5794 5794
5811 5811 5811 5811 5811 5812 5812 5812 5811 5811 5811 5810 5810 5809 5808 5806 5805 5804 5803 5801 5800 5798 5797 5796 5794 5793 5792 5792 5791 5790 5789 5789 5788 5787 5787 5787 5786 5786 5786 5785 5785 5785 5785
5805 5804 5805 5805 5805 5805 5805 5805 5805 5805 5804 5804 5803 5802 5801 5800 5799 5797 5796 5794 5793 5791 5790 5789 5787 5786 5785 5784 5783 5782 5782 5781 5780 5779 5778 5778 5777 5777 5776 5776 5775 5775 5775
5798 5798 5798 5798 5798 5798 5798 5798 5798 5798 5798 5797 5797 5795 5794 5793 5792 5790 5789 5787 5785 5784 5782 5781 5780 5778 5777 5776 5775 5774 5773 5772 5771 5770 5768 5767 5767 5766 5765 5765 5764 5764 5764
5790 5791 5791 5791 5791 5791 5791 5791 5791 5791 5791 5790 5790 5789 5787 5786 5785 5783 5781 5779 5778 5776 5775 5773 5772 5770 5769 5767 5766 5764 5763 5762 5760 5759 5758 5756 5755 5754 5753 5752 5752 5751 5751
5782 5783 5784 5784 5784 5784 5784 5784 5784 5784 5784 5783 5782 5781 5780 5779 5777 5776 5774 5772 5770 5768 5767 5765 5763 5761 5760 5758 5756 5755 5753 5751 5749 5748 5746 5745 5743 5742 5741 5739 5739 5738 5738
5775 5775 5775 5775 5775 5776 5776 5776 5777 5776 5776 5776 5775 5774 5773 5772 5769 5768 5766 5764 5762 5760 5759 5757 5755 5753 5750 5748 5746 5744 5742 5740 5738 5736 5734 5733 5731 5730 5728 5726 5725 5724 5723
5765 5765 5765 5766 5767 5767 5768 5768 5768 5768 5768 5768 5767 5766 5765 5763 5761 5760 5758 5756 5754 5752 5750 5748 5746 5743 5741 5739 5736 5734 5732 5729 5726 5724 5722 5720 5718 5716 5715 5713 5711 5710 5709
5754 5755 5756 5757 5757 5758 5759 5759 5760 5760 5759 5759 5758 5757 5756 5755 5753 5751 5749 5747 5744 5742 5740 5738 5736 5733 5731 5729 5726 5724 5721 5718 5715 5712 5709 5706 5704 5702 5700 5698 5696 5695 5693
5743 5745 5746 5747 5748 5749 5750 5750 5750 5750 5750 5750 5749 5748 5746 5745 5743 5742 5740 5738 5735 5733 5730 5728 5725 5723 5720 5717 5715 5712 5709 5705 5702 5699 5695 5692 5689 5686 5684 5681 5679 5677 5676
5731 5733 5735 5736 5738 5738 5739 5739 5740 5740 5741 5740 5740 5738 5737 5735 5734 5732 5730 5727 5725 5722 5719 5717 5714 5711 5708 5705 5702 5698 5695 5691 5687 5683 5679 5676 5672 5669 5667 5664 5661 5659 5657
5719 5721 5723 5725 5726 5727 5728 5728 5729 5730 5730 5730 5729 5728 5727 5725 5723 5721 5719 5717 5714 5711 5707 5704 5701 5698 5695 5691 5688 5684 5680 5676 5671 5667 5663 5659 5655 5651 5648 5645 5642 5639 5636
5705 5708 5710 5712 5714 5715 5716 5717 5718 5719 5719 5719 5718 5717 5716 5714 5712 5710 5708 5705 5703 5700 5696 5692 5688 5684 5681 5677 5673 5669 5665 5660 5655 5650 5645 5641 5636 5632 5629 5625 5621 5618 5615
5689 5693 5696 5699 5701 5703 5705 5706 5707 5707 5708 5708 5707 5707 5705 5703 5701 5699 5696 5694 5691 5688 5685 5680 5676 5672 5667 5663 5658 5653 5648 5643 5638 5633 5627 5622 5617 5612 5608 5604 5600 5596 5592
5673 5678 5682 5685 5689 5691 5693 5695 5696 5696 5697 5696 5696 5695 5694 5691 5689 5687 5684 5681 5679 5675 5672 5668 5663 5658 5653 5647 5641 5636 5631 5625 5619 5614 5608 5602 5597 5592 5586 5581 5576 5571 5566
5657 5662 5667 5672 5675 5678 5681 5683 5684 5685 5685 5685 5685 5683 5682 5680 5677 5675 5672 5669 5665 5662 5658 5654 5648 5643 5637 5630 5624 5618 5612 5606 5599 5592 5585 5579 5574 5568 5562 5555 5549 5543 5538
5640 5647 5653 5658 5662 5666 5669 5671 5673 5674 5674 5674 5673 5672 5670 5668 5665 5662 5659 5655 5651 5647 5643 5638 5633 5626 5620 5613 5607 5601 5594 5586 5578 5570 5563 5555 5548 5540 5533 5526 5520 5514 5507
5625 5632 5639 5644 5649 5653 5657 5660 5662 5663 5663 5663 5662 5661 5659 5656 5653 5650 5646 5642 5637 5632 5627 5622 5616 5610 5603 5595 5590 5583 5575 5566 5557 5548 5539 5531 5522 5513 5504 5497 5490 5484 5477
5612 5619 5626 5632 5637 5642 5646 5649 5651 5652 5653 5653 5652 5650 5648 5644 5641 5637 5632 5627 5622 5616 5610 5605 5599 5592 5585 5577 5570 5564 5557 5546 5536 5524 5515 5506 5496 5486 5477 5470 5463 5455 5448
5601 5608 5615 5621 5627 5632 5636 5639 5641 5642 5642 5642 5641 5639 5636 5632 5628 5623 5618 5613 5607 5600 5594 5588 5582 5575 5567 5558 5551 5543 5536 5527 5516 5502 5494 5482 5471 5463 5452 5443 5434 5426 5419
5592 5599 5606 5612 5618 5623 5626 5629 5631 5632 5632 5631 5629 5627 5623 5619 5615 5610 5604 5598 5591 5584 5577 5571 5564 5556 5548 5539 5531 5522 5514 5506 5497 5484 5474 5464 5449 5442 5431 5421 5411 5401 5394
5586 5593 5599 5605 5610 5615 5618 5620 5621 5622 5621 5620 5618 5615 5611 5607 5602 5596 5589 5582 5575 5566 5560 5553 5546 5537 5529 5520 5512 5503 5492 5483 5473 5460 5453 5448 5433 5424 5414 5402 5392 5382 5375
5582 5588 5594 5599 5604 5607 5610 5612 5613 5612 5611 5609 5607 5603 5598 5593 5587 5582 5575 5568 5559 5550 5542 5534 5526 5517 5508 5499 5490 5482 5473 5465 5456 5442 5432 5430 5420 5410 5400 5388 5376 5366 5358
5580 5585 5590 5595 5599 5602 5604 5604 5604 5603 5601 5598 5595 5590 5586 5580 5574 5567 5561 5553 5544 5534 5524 5514 5505 5496 5487 5477 5469 5462 5455 5447 5441 5430 5417 5412 5405 5397 5388 5375 5363 5352 5343
5581 5585 5589 5592 5594 5596 5596 5596 5595 5593 5590 5587 5583 5578 5573 5566 5559 5552 5544 5536 5527 5517 5506 5495 5485 5475 5466 5458 5451 5445 5438 5431 5424 5418 5407 5400 5392 5382 5378 5367 5355 5344 5334